TimeEDT,TemperatureF,Dew PointF,Humidity,Sea Level PressureIn,VisibilityMPH,Wind Direction,Wind SpeedMPH,Gust SpeedMPH,PrecipitationIn,Events,Conditions,WindDirDegrees,DateUTC
12:06 AM,68.0,66.2,94,29.69,10.0,South,4.6,-,0.01,Rain,Light Rain,170,2013-09-13 04:06:00
12:22 AM,68.0,66.2,94,29.69,9.0,SSE,5.8,-,0.01,Rain,Light Rain,160,2013-09-13 04:22:00
12:52 AM,68.0,64.9,90,29.68,10.0,Calm,Calm,-,0.02,,Overcast,0,2013-09-13 04:52:00
1:52 AM,68.0,66.0,93,29.67,10.0,Calm,Calm,-,N/A,,Overcast,0,2013-09-13 05:52:00
2:52 AM,68.0,64.9,90,29.65,10.0,Calm,Calm,-,N/A,,Partly Cloudy,0,2013-09-13 06:52:00
3:52 AM,66.9,64.9,93,29.63,10.0,Calm,Calm,-,N/A,,Mostly Cloudy,0,2013-09-13 07:52:00
4:52 AM,66.9,64.9,93,29.62,10.0,Calm,Calm,-,0.00,,Overcast,0,2013-09-13 08:52:00
5:52 AM,66.9,64.9,93,29.64,10.0,Calm,Calm,-,0.00,,Overcast,0,2013-09-13 09:52:00
6:52 AM,66.9,64.9,93,29.65,10.0,Calm,Calm,-,0.00,,Overcast,0,2013-09-13 10:52:00
7:52 AM,68.0,66.0,93,29.64,10.0,Calm,Calm,-,0.03,,Overcast,0,2013-09-13 11:52:00
8:52 AM,71.1,66.0,84,29.64,10.0,NW,3.5,-,N/A,,Clear,320,2013-09-13 12:52:00
9:23 AM,71.6,64.4,78,29.65,10.0,WNW,6.9,-,N/A,,Mostly Cloudy,290,2013-09-13 13:23:00
9:42 AM,71.6,64.4,78,29.64,10.0,West,6.9,-,N/A,,Scattered Clouds,280,2013-09-13 13:42:00
9:52 AM,73.0,64.0,73,29.64,10.0,NNW,6.9,-,N/A,,Partly Cloudy,330,2013-09-13 13:52:00
10:47 AM,73.4,64.4,73,29.63,10.0,WNW,4.6,-,N/A,,Mostly Cloudy,300,2013-09-13 14:47:00
10:52 AM,73.0,64.0,73,29.63,10.0,NW,4.6,-,N/A,,Scattered Clouds,310,2013-09-13 14:52:00
11:52 AM,77.0,62.1,60,29.62,10.0,West,5.8,-,N/A,,Clear,280,2013-09-13 15:52:00
12:52 PM,78.1,61.0,56,29.60,10.0,WNW,9.2,-,N/A,,Scattered Clouds,300,2013-09-13 16:52:00
1:52 PM,79.0,61.0,54,29.60,10.0,NW,9.2,-,N/A,,Mostly Cloudy,310,2013-09-13 17:52:00
2:52 PM,77.0,62.1,60,29.60,10.0,WNW,13.8,17.3,N/A,,Partly Cloudy,290,2013-09-13 18:52:00
3:52 PM,73.0,59.0,61,29.62,10.0,NW,13.8,-,N/A,,Clear,310,2013-09-13 19:52:00
4:52 PM,68.0,59.0,73,29.65,10.0,NW,9.2,19.6,0.00,Rain,Light Rain,320,2013-09-13 20:52:00
5:52 PM,70.0,57.0,63,29.66,10.0,NNW,11.5,-,0.00,,Clear,330,2013-09-13 21:52:00
6:52 PM,66.0,55.9,70,29.70,10.0,NW,11.5,-,N/A,,Mostly Cloudy,320,2013-09-13 22:52:00
7:52 PM,64.0,55.0,73,29.73,10.0,NNW,5.8,-,N/A,,Scattered Clouds,330,2013-09-13 23:52:00
8:52 PM,62.1,54.0,75,29.76,10.0,NW,4.6,-,N/A,,Mostly Cloudy,320,2013-09-14 00:52:00
9:52 PM,61.0,54.0,78,29.77,10.0,NNW,4.6,-,N/A,,Scattered Clouds,340,2013-09-14 01:52:00
10:52 PM,60.1,53.1,78,29.78,10.0,NNW,8.1,-,N/A,,Partly Cloudy,340,2013-09-14 02:52:00
11:52 PM,60.1,52.0,75,29.79,10.0,NW,8.1,-,N/A,,Mostly Cloudy,320,2013-09-14 03:52:00